When you browse on this site, cookies collect data to enhance your experience and personalize the content and advertising you see.
Visit our Privacy Policy to learn more. By continuing to use the site, you agree to this use of cookies and data.
  • In Hungary
  • List of Countries
  • For 7 days
  • Water Temperature
  • Satellite Maps
  • Weather Map
  • News
  • Weather Widgets
  • user-avatar
    Login

    Hourly Weather Szentendre

    Today, 16 January, Wednesday

    Time Temperature Precipitation Wind Pressure Humidity
    00:00 -1°C° 0 mm 7 mps 745 mmHg 78%
    01:00 0°C° 0 mm 4 mps 745 mmHg 81%
    02:00 0°C° 0 mm 5 mps 745 mmHg 80%
    03:00 -1°C° 0 mm 6 mps 745 mmHg 79%
    04:00 -1°C° 0 mm 7 mps 745 mmHg 79%
    05:00 -1°C° 0 mm 7 mps 745 mmHg 79%
    06:00 0°C° 0 mm 7 mps 745 mmHg 78%
    07:00 +1°C° 0 mm 5 mps 745 mmHg 81%
    08:00 +1°C° 0 mm 6 mps 746 mmHg 79%
    09:00 +2°C° 0 mm 6 mps 746 mmHg 77%
    10:00 +2°C° 0 mm 7 mps 746 mmHg 75%
    11:00 +3°C° 0 mm 6 mps 747 mmHg 74%
    12:00 +3°C° 0 mm 6 mps 747 mmHg 74%
    13:00 +3°C° 0 mm 6 mps 747 mmHg 73%
    14:00 +3°C° 0 mm 5 mps 747 mmHg 76%
    15:00 +3°C° 0 mm 4 mps 747 mmHg 78%
    16:00 +2°C° 0 mm 3 mps 747 mmHg 81%
    17:00 +3°C° 0 mm 2 mps 747 mmHg 81%
    18:00 +2°C° 0 mm 2 mps 746 mmHg 81%
    19:00 +3°C° 0 mm 1 mps 746 mmHg 81%
    20:00 +3°C° 0 mm 1 mps 746 mmHg 80%
    21:00 +3°C° 0 mm 1 mps 746 mmHg 78%
    22:00 +3°C° 0 mm 1 mps 746 mmHg 77%
    23:00 +3°C° 0 mm 1 mps 746 mmHg 80%

    Tomorrow, 17 January, Thursday

    Time Temperature Precipitation Wind Pressure Humidity
    00:00 +2°C° 0 mm 1 mps 746 mmHg 83%
    01:00 +1°C° 0 mm 2 mps 746 mmHg 86%
    02:00 +1°C° 0 mm 2 mps 745 mmHg 89%
    03:00 +1°C° 0 mm 2 mps 745 mmHg 91%
    04:00 +1°C° 0 mm 2 mps 745 mmHg 94%
    05:00 +1°C° 0 mm 2 mps 745 mmHg 94%
    06:00 +1°C° 0 mm 2 mps 745 mmHg 94%
    07:00 +1°C° 0 mm 2 mps 745 mmHg 94%
    08:00 +2°C° 0 mm 2 mps 745 mmHg 92%
    09:00 +3°C° 0 mm 2 mps 745 mmHg 91%
    10:00 +4°C° 0 mm 1 mps 745 mmHg 89%
    11:00 +5°C° 0 mm 2 mps 745 mmHg 85%
    12:00 +6°C° 0 mm 2 mps 745 mmHg 81%
    13:00 +7°C° 0 mm 3 mps 745 mmHg 77%
    14:00 +7°C° 0 mm 2 mps 745 mmHg 79%
    15:00 +6°C° 0 mm 2 mps 744 mmHg 81%
    16:00 +6°C° 0 mm 2 mps 744 mmHg 84%
    17:00 +5°C° 0.3 mm 3 mps 744 mmHg 85%
    18:00 +5°C° 0.3 mm 3 mps 744 mmHg 86%
    19:00 +5°C° 0.3 mm 4 mps 744 mmHg 88%
    20:00 +5°C° 0.1 mm 3 mps 745 mmHg 88%
    21:00 +5°C° 0.1 mm 3 mps 745 mmHg 89%
    22:00 +5°C° 0.1 mm 3 mps 745 mmHg 90%
    23:00 +5°C° 0.3 mm 2 mps 745 mmHg 89%

    Day after tomorrow, 18 January, Friday

    Time Temperature Precipitation Wind Pressure Humidity
    00:00 +5°C° 0.3 mm 2 mps 745 mmHg 89%
    01:00 +4°C° 0.3 mm 2 mps 745 mmHg 88%
    02:00 +3°C° 0.2 mm 3 mps 745 mmHg 85%
    03:00 +3°C° 0.2 mm 3 mps 746 mmHg 83%
    04:00 +3°C° 0.2 mm 4 mps 746 mmHg 80%
    05:00 +3°C° 0 mm 4 mps 747 mmHg 78%
    06:00 +1°C° 0 mm 4 mps 748 mmHg 76%
    07:00 +1°C° 0 mm 4 mps 748 mmHg 74%
    08:00 +1°C° 0 mm 5 mps 749 mmHg 70%
    09:00 0°C° 0 mm 5 mps 750 mmHg 67%
    10:00 -1°C° 0 mm 6 mps 751 mmHg 64%
    11:00 0°C° 0 mm 5 mps 751 mmHg 62%
    12:00 +1°C° 0 mm 5 mps 751 mmHg 60%
    13:00 +1°C° 0 mm 4 mps 751 mmHg 58%
    14:00 +1°C° 0 mm 4 mps 752 mmHg 61%
    15:00 +1°C° 0 mm 3 mps 752 mmHg 64%
    16:00 +2°C° 0 mm 2 mps 752 mmHg 67%
    17:00 +1°C° 0 mm 2 mps 752 mmHg 69%
    18:00 +2°C° 0 mm 1 mps 753 mmHg 71%
    19:00 +1°C° 0 mm 1 mps 753 mmHg 72%
    20:00 +1°C° 0 mm 1 mps 753 mmHg 72%
    21:00 +1°C° 0 mm 1 mps 753 mmHg 72%
    22:00 0°C° 0 mm 0 mps 753 mmHg 73%
    23:00 0°C° 0 mm 0 mps 753 mmHg 72%

    19 January, Saturday

    Time Temperature Precipitation Wind Pressure Humidity
    00:00 +1°C° 0 mm 1 mps 753 mmHg 72%
    01:00 +1°C° 0 mm 1 mps 753 mmHg 72%
    02:00 +1°C° 0 mm 1 mps 753 mmHg 72%
    03:00 +1°C° 0 mm 1 mps 753 mmHg 72%
    04:00 +1°C° 0 mm 1 mps 752 mmHg 72%
    05:00 +1°C° 0 mm 1 mps 752 mmHg 72%
    06:00 +1°C° 0 mm 1 mps 752 mmHg 73%
    07:00 +1°C° 0 mm 1 mps 752 mmHg 74%
    08:00 +1°C° 0 mm 1 mps 752 mmHg 72%
    09:00 +1°C° 0 mm 2 mps 752 mmHg 70%
    10:00 +1°C° 0 mm 2 mps 752 mmHg 68%
    11:00 +1°C° 0 mm 2 mps 752 mmHg 66%
    12:00 +2°C° 0 mm 2 mps 751 mmHg 64%
    13:00 +2°C° 0 mm 2 mps 751 mmHg 62%
    14:00 +2°C° 0.2 mm 2 mps 751 mmHg 67%
    15:00 +1°C° 0.2 mm 2 mps 750 mmHg 73%
    16:00 +1°C° 0.2 mm 2 mps 750 mmHg 78%
    17:00 -1°C° 0.7 mm 3 mps 750 mmHg 83%
    18:00 -1°C° 0.7 mm 3 mps 749 mmHg 88%
    19:00 -1°C° 0.7 mm 3 mps 749 mmHg 93%
    20:00 -2°C° 0.6 mm 3 mps 749 mmHg 93%
    21:00 -2°C° 0.6 mm 2 mps 749 mmHg 94%
    22:00 -2°C° 0.6 mm 2 mps 749 mmHg 94%
    23:00 -2°C° 0.6 mm 2 mps 749 mmHg 95%

    20 January, Sunday

    Time Temperature Precipitation Wind Pressure Humidity
    00:00 -2°C° 0.6 mm 2 mps 748 mmHg 95%
    01:00 -2°C° 0.6 mm 2 mps 748 mmHg 95%
    02:00 -2°C° 0.3 mm 2 mps 748 mmHg 95%
    03:00 0°C° 0.3 mm 1 mps 747 mmHg 95%
    04:00 0°C° 0.3 mm 1 mps 747 mmHg 95%
    05:00 0°C° 0 mm 1 mps 747 mmHg 95%
    06:00 0°C° 0 mm 1 mps 747 mmHg 95%
    07:00 0°C° 0 mm 1 mps 747 mmHg 95%
    08:00 0°C° 0 mm 1 mps 747 mmHg 94%
    09:00 +1°C° 0 mm 1 mps 747 mmHg 93%
    10:00 0°C° 0 mm 0 mps 747 mmHg 91%
    11:00 0°C° 0 mm 0 mps 747 mmHg 90%
    12:00 +2°C° 0 mm 1 mps 747 mmHg 90%
    13:00 +2°C° 0 mm 1 mps 747 mmHg 89%
    14:00 +2°C° 0 mm 1 mps 747 mmHg 89%
    15:00 +2°C° 0 mm 1 mps 747 mmHg 90%
    16:00 +2°C° 0 mm 1 mps 747 mmHg 91%
    17:00 +2°C° 0 mm 1 mps 747 mmHg 91%
    18:00 +1°C° 0 mm 1 mps 748 mmHg 91%
    19:00 +1°C° 0 mm 1 mps 748 mmHg 91%
    20:00 +1°C° 0 mm 1 mps 748 mmHg 92%
    21:00 +1°C° 0 mm 1 mps 748 mmHg 92%
    22:00 0°C° 0 mm 1 mps 749 mmHg 93%
    23:00 0°C° 0 mm 1 mps 749 mmHg 93%

    21 January, Monday

    Time Temperature Precipitation Wind Pressure Humidity
    00:00 0°C° 0 mm 1 mps 749 mmHg 94%
    01:00 -1°C° 0 mm 1 mps 749 mmHg 94%
    02:00 -1°C° 0 mm 1 mps 749 mmHg 94%
    03:00 -1°C° 0 mm 1 mps 750 mmHg 94%
    04:00 -1°C° 0 mm 1 mps 750 mmHg 94%
    05:00 -1°C° 0 mm 1 mps 750 mmHg 93%
    06:00 -1°C° 0 mm 1 mps 751 mmHg 93%
    07:00 -1°C° 0 mm 1 mps 751 mmHg 93%
    08:00 -1°C° 0 mm 1 mps 752 mmHg 90%
    09:00 0°C° 0 mm 1 mps 752 mmHg 86%
    10:00 +1°C° 0 mm 1 mps 753 mmHg 83%
    11:00 +1°C° 0 mm 1 mps 753 mmHg 84%
    12:00 +2°C° 0 mm 1 mps 753 mmHg 84%
    13:00 +2°C° 0 mm 1 mps 753 mmHg 85%
    14:00 +2°C° 0 mm 1 mps 753 mmHg 84%
    15:00 +2°C° 0 mm 1 mps 754 mmHg 84%
    16:00 +2°C° 0 mm 1 mps 754 mmHg 84%
    17:00 +1°C° 0 mm 1 mps 754 mmHg 84%
    18:00 +1°C° 0 mm 1 mps 755 mmHg 85%
    19:00 0°C° 0 mm 1 mps 755 mmHg 85%
    20:00 -2°C° 0 mm 2 mps 755 mmHg 83%
    21:00 -3°C° 0 mm 2 mps 756 mmHg 82%
    22:00 -3°C° 0 mm 2 mps 756 mmHg 80%
    23:00 -3°C° 0 mm 2 mps 756 mmHg 79%
    Show more